AFR842 LFPG-TFFF

Flight info

Callsign AFR842
Flight time N/A
Altitude 30000
Route LGL UN491 UPALO UN585 FEJAC DCT REGHI/M082F300 DCT ETIKI DCT 47N015W 46N020W 41N030W 36N040W 32N045W 27N050W DCT DRDGE/N0493F300 DCT UMAMU UMAMU2D
Aircraft B77W/H-SDE2E3FGHIJ3J5M1P2RWXYZ/LB1D1

Departure

Time N/A
Airport Charles de Gaulle International Airport (LFPG)

Arrival

Time 2026-05-08 16:10
Airport Martinique Aimé Césaire International Airport (TFFF)
Time Latitude Longitude Altitude Speed Heading
2026-05-08 15:31 17.42669 -58.61082 36046 ft 499 kts 227°
2026-05-08 15:31 17.37795 -58.66249 36049 ft 499 kts 227°
2026-05-08 15:32 17.32923 -58.71409 36049 ft 498 kts 227°
2026-05-08 15:32 17.28044 -58.76572 36046 ft 498 kts 227°
2026-05-08 15:33 17.23174 -58.81721 36041 ft 498 kts 227°
2026-05-08 15:33 17.18302 -58.86867 36049 ft 498 kts 227°
2026-05-08 15:34 17.13429 -58.92012 36041 ft 498 kts 227°
2026-05-08 15:34 17.08556 -58.97153 36044 ft 498 kts 227°
2026-05-08 15:35 17.03679 -59.02294 36037 ft 498 kts 227°
2026-05-08 15:35 16.98803 -59.07428 36041 ft 498 kts 227°
2026-05-08 15:36 16.93958 -59.12526 36042 ft 498 kts 227°
2026-05-08 15:36 16.89079 -59.17658 36039 ft 498 kts 227°
2026-05-08 15:37 16.84198 -59.22787 36039 ft 498 kts 227°
2026-05-08 15:37 16.79319 -59.27909 36050 ft 497 kts 227°
2026-05-08 15:38 16.74438 -59.33031 36031 ft 497 kts 227°
2026-05-08 15:38 16.69565 -59.38138 36034 ft 497 kts 227°
2026-05-08 15:39 16.64696 -59.43239 36037 ft 496 kts 227°
2026-05-08 15:39 16.59825 -59.48337 36045 ft 496 kts 227°
2026-05-08 15:40 16.54962 -59.53423 36045 ft 495 kts 227°
2026-05-08 15:40 16.50099 -59.58505 36043 ft 495 kts 227°
2026-05-08 15:41 16.45238 -59.63582 36046 ft 495 kts 227°
2026-05-08 15:41 16.40375 -59.68658 36029 ft 495 kts 226°
2026-05-08 15:42 16.35512 -59.73728 36039 ft 495 kts 226°
2026-05-08 15:42 16.30652 -59.78792 36034 ft 494 kts 226°
2026-05-08 15:43 16.25789 -59.83856 36035 ft 494 kts 226°
2026-05-08 15:43 16.20933 -59.88909 36034 ft 494 kts 226°
2026-05-08 15:44 16.16076 -59.93958 36035 ft 493 kts 226°
2026-05-08 15:44 16.11223 -59.99000 36033 ft 493 kts 226°
2026-05-08 15:45 16.06371 -60.04037 36036 ft 493 kts 226°
2026-05-08 15:45 16.01520 -60.09070 36029 ft 492 kts 226°
2026-05-08 15:46 15.99114 -60.11564 35837 ft 484 kts 226°
2026-05-08 15:46 15.96748 -60.14015 35418 ft 478 kts 226°
2026-05-08 15:46 15.94395 -60.16455 34782 ft 478 kts 226°
2026-05-08 15:46 15.92036 -60.18899 34094 ft 480 kts 226°
2026-05-08 15:47 15.89665 -60.21354 33334 ft 482 kts 226°
2026-05-08 15:47 15.87294 -60.23807 32724 ft 480 kts 226°
2026-05-08 15:47 15.84945 -60.26236 32237 ft 475 kts 226°
2026-05-08 15:47 15.82615 -60.28644 31778 ft 470 kts 226°
2026-05-08 15:48 15.78013 -60.33396 30784 ft 464 kts 226°
2026-05-08 15:48 15.75734 -60.35751 30274 ft 461 kts 226°
2026-05-08 15:48 15.73467 -60.38094 29736 ft 458 kts 226°
2026-05-08 15:49 15.71214 -60.40421 29177 ft 456 kts 226°
2026-05-08 15:49 15.68972 -60.42733 28634 ft 453 kts 226°
2026-05-08 15:49 15.66746 -60.45026 28103 ft 451 kts 226°
2026-05-08 15:49 15.64557 -60.47283 27589 ft 448 kts 226°
2026-05-08 15:50 15.62353 -60.49558 27059 ft 446 kts 226°
2026-05-08 15:50 15.60154 -60.51827 26556 ft 445 kts 226°
2026-05-08 15:50 15.57967 -60.54082 26056 ft 443 kts 226°
2026-05-08 15:50 15.55786 -60.56329 25573 ft 441 kts 226°
2026-05-08 15:51 15.53615 -60.58565 25086 ft 439 kts 226°
2026-05-08 15:51 15.51450 -60.60792 24627 ft 438 kts 226°
2026-05-08 15:51 15.49290 -60.63011 24160 ft 437 kts 226°
2026-05-08 15:51 15.47131 -60.65229 23718 ft 436 kts 226°
2026-05-08 15:52 15.44986 -60.67436 23226 ft 434 kts 226°
2026-05-08 15:52 15.42850 -60.69635 22788 ft 430 kts 226°
2026-05-08 15:52 15.40762 -60.71784 22401 ft 426 kts 226°
2026-05-08 15:52 15.38668 -60.73935 21993 ft 422 kts 226°
2026-05-08 15:53 15.36588 -60.76070 21580 ft 419 kts 226°
2026-05-08 15:53 15.34554 -60.78157 21169 ft 416 kts 226°
2026-05-08 15:53 15.32503 -60.80263 20762 ft 413 kts 226°
2026-05-08 15:53 15.30469 -60.82351 20368 ft 410 kts 226°
2026-05-08 15:54 15.28457 -60.84417 19963 ft 401 kts 226°
2026-05-08 15:54 15.26506 -60.86417 19171 ft 390 kts 226°
2026-05-08 15:54 15.24586 -60.88384 18188 ft 387 kts 226°
2026-05-08 15:54 15.22680 -60.90339 17142 ft 388 kts 226°
2026-05-08 15:55 15.20758 -60.92308 16635 ft 388 kts 226°
2026-05-08 15:55 15.16949 -60.96212 15722 ft 383 kts 226°
2026-05-08 15:55 15.15059 -60.98147 15271 ft 381 kts 226°
2026-05-08 15:56 15.13185 -61.00064 14837 ft 378 kts 226°
2026-05-08 15:56 15.11319 -61.01975 14368 ft 376 kts 226°
2026-05-08 15:56 15.09463 -61.03874 13917 ft 370 kts 226°
2026-05-08 15:56 15.07721 -61.05655 13408 ft 345 kts 226°
2026-05-08 15:57 15.06032 -61.07381 13002 ft 329 kts 226°
2026-05-08 15:57 15.04426 -61.09023 12609 ft 324 kts 225°
2026-05-08 15:57 15.02819 -61.10666 12237 ft 326 kts 225°
2026-05-08 15:57 15.01189 -61.12334 11843 ft 335 kts 225°
2026-05-08 15:58 14.99515 -61.14048 11444 ft 341 kts 225°
2026-05-08 15:58 14.97826 -61.15773 11026 ft 341 kts 225°
2026-05-08 15:58 14.96298 -61.17334 10643 ft 341 kts 225°
2026-05-08 15:58 14.94648 -61.19018 10448 ft 332 kts 225°
2026-05-08 15:59 14.93027 -61.20674 10294 ft 323 kts 224°
2026-05-08 15:59 14.91452 -61.22280 10151 ft 313 kts 224°
2026-05-08 15:59 14.89924 -61.23840 9990 ft 305 kts 224°
2026-05-08 15:59 14.88413 -61.25382 9633 ft 305 kts 224°
2026-05-08 16:00 14.86908 -61.26915 9281 ft 303 kts 224°
2026-05-08 16:00 14.85412 -61.28441 8946 ft 302 kts 224°
2026-05-08 16:00 14.83769 -61.29716 8579 ft 293 kts 201°
2026-05-08 16:00 14.81815 -61.30157 8268 ft 286 kts 178°
2026-05-08 16:01 14.79848 -61.30036 7972 ft 282 kts 172°
2026-05-08 16:01 14.78529 -61.29908 7761 ft 281 kts 172°
2026-05-08 16:01 14.76615 -61.29717 7676 ft 271 kts 172°
2026-05-08 16:01 14.74778 -61.29535 7566 ft 261 kts 172°
2026-05-08 16:02 14.72951 -61.29355 6909 ft 263 kts 172°
2026-05-08 16:02 14.71199 -61.29190 6543 ft 249 kts 172°
2026-05-08 16:02 14.69526 -61.29034 6240 ft 233 kts 172°
2026-05-08 16:02 14.67958 -61.28888 5935 ft 222 kts 172°
2026-05-08 16:03 14.66431 -61.28745 5639 ft 219 kts 172°
2026-05-08 16:03 14.64904 -61.28602 5402 ft 223 kts 172°
2026-05-08 16:03 14.63328 -61.28454 5125 ft 231 kts 172°
2026-05-08 16:03 14.61728 -61.28307 4793 ft 229 kts 172°
2026-05-08 16:04 14.60157 -61.28165 4527 ft 225 kts 172°
2026-05-08 16:04 14.58597 -61.28024 4248 ft 224 kts 172°
2026-05-08 16:04 14.57149 -61.27876 4001 ft 218 kts 165°
2026-05-08 16:04 14.55860 -61.27206 3728 ft 204 kts 130°
2026-05-08 16:05 14.55193 -61.25971 3605 ft 195 kts 104°
2026-05-08 16:05 14.55072 -61.24575 3504 ft 199 kts 82°
2026-05-08 16:05 14.55271 -61.23149 3434 ft 203 kts 82°
2026-05-08 16:05 14.55468 -61.21702 3358 ft 202 kts 81°
2026-05-08 16:06 14.55690 -61.20312 3281 ft 200 kts 80°
2026-05-08 16:06 14.55932 -61.18891 3150 ft 201 kts 80°
2026-05-08 16:06 14.56177 -61.17453 2912 ft 204 kts 80°
2026-05-08 16:06 14.56423 -61.16014 2656 ft 203 kts 79°
2026-05-08 16:07 14.56666 -61.14594 2414 ft 200 kts 80°
2026-05-08 16:07 14.56905 -61.13197 2157 ft 199 kts 79°
2026-05-08 16:07 14.57140 -61.11810 1910 ft 195 kts 79°
2026-05-08 16:07 14.57372 -61.10445 1665 ft 192 kts 80°
2026-05-08 16:08 14.57606 -61.09080 1373 ft 194 kts 79°
2026-05-08 16:08 14.57830 -61.07766 1118 ft 177 kts 78°
2026-05-08 16:08 14.58034 -61.06575 906 ft 157 kts 80°
2026-05-08 16:08 14.58206 -61.05535 708 ft 136 kts 78°
2026-05-08 16:09 14.58361 -61.04613 570 ft 129 kts 77°
2026-05-08 16:09 14.58526 -61.03686 419 ft 132 kts 79°
2026-05-08 16:09 14.58695 -61.02730 231 ft 136 kts 79°
2026-05-08 16:09 14.58853 -61.01785 53 ft 134 kts 79°
2026-05-08 16:10 14.58997 -61.00961 28 ft 108 kts 80°
2026-05-08 16:10 14.59094 -61.00389 25 ft 56 kts 80°
2026-05-08 16:10 14.59149 -61.00076 28 ft 24 kts 80°
2026-05-08 16:10 14.59168 -61.00024 28 ft 3 kts 21°
2026-05-08 16:11 14.59242 -61.00030 28 ft 14 kts 350°
2026-05-08 16:11 14.59320 -61.00042 28 ft 7 kts 350°
2026-05-08 16:11 14.59345 -61.00050 29 ft 4 kts 340°
2026-05-08 16:11 14.59368 -61.00072 29 ft 6 kts 306°
2026-05-08 16:12 14.59382 -61.00106 27 ft 6 kts 289°
2026-05-08 16:12 14.59404 -61.00151 26 ft 8 kts 299°
2026-05-08 16:12 14.59436 -61.00198 27 ft 8 kts 310°
2026-05-08 16:12 14.59462 -61.00207 28 ft 4 kts
2026-05-08 16:13 14.59482 -61.00192 27 ft 4 kts 44°
2026-05-08 16:13 14.59504 -61.00170 28 ft 5 kts 46°
2026-05-08 16:13 14.59514 -61.00160 28 ft 0 kts 46°